DW3845 Weather Reports


Display with metric or nautical units.
time (UTC)temp
F
wind
direction
speed
MPH
gust
MPH
rain 1hr
in
rain 24hr
in
rain mn
in
humidity
%
barometer
mb
20260905114541 40 40 0.0 1.0 0.00 0.03 0.00 71 1003.8
20260905113040 40 44 0.0 0.0 0.00 0.03 0.00 71 1003.7
20260905111600 40 39 0.0 1.0 0.00 0.03 0.00 71 1003.7
20260905110037 40 46 0.0 1.0 0.00 0.03 0.00 71 1003.5
20260905104536 40 49 0.0 3.0 0.00 0.03 0.00 70 1003.6
20260905103034 41 44 0.0 1.0 0.00 0.03 0.00 70 1003.6
20260905101532 41 46 0.0 0.0 0.00 0.03 0.00 70 1003.6
20260905100032 41 46 0.0 0.0 0.00 0.03 0.00 71 1003.6
20260905094530 41 49 0.0 0.0 0.00 0.03 0.00 70 1003.7
20260905093028 41 44 0.0 0.0 0.00 0.03 0.00 70 1003.8
20260905091526 42 41 0.0 0.0 0.00 0.03 0.00 70 1003.7
20260905090025 41 34 0.0 1.0 0.00 0.03 0.00 71 1003.7
20260905084527 42 47 0.0 1.0 0.00 0.03 0.00 70 1003.7
20260905083022 42 46 0.0 0.0 0.00 0.03 0.00 70 1003.4
20260905081520 42 44 0.0 0.0 0.00 0.03 0.00 70 1003.3
20260905080017 42 44 0.0 0.0 0.00 0.03 0.00 71 1003.0
20260905074515 42 44 0.0 1.0 0.00 0.11 0.00 71 1002.9
20260905073016 42 44 0.0 0.0 0.00 0.11 0.00 71 1002.8
20260905071518 42 44 0.0 0.0 0.00 0.11 0.00 71 1002.6
20260905070008 43 44 0.0 0.0 0.00 0.11 0.00 71 1002.6
20260905064507 43 41 0.0 0.0 0.00 0.14 0.11 72 1002.6
20260905063006 43 49 0.0 0.0 0.00 0.14 0.11 71 1002.7
20260905061509 43 34 0.0 0.0 0.00 0.14 0.11 72 1002.8
20260905060004 43 44 0.0 0.0 0.00 0.14 0.11 72 1002.7
20260905054510 43 44 0.0 0.0 0.00 0.15 0.11 73 1002.6
20260905053002 43 43 0.0 0.0 0.00 0.15 0.11 73 1002.6
20260905051502 43 46 0.0 0.0 0.00 0.15 0.11 74 1002.5
20260905050101 44 46 0.0 0.0 0.00 0.15 0.11 74 1002.6
20260905044559 44 44 0.0 0.0 0.00 0.15 0.11 74 1002.5
20260905043058 44 32 0.0 0.0 0.00 0.15 0.11 75 1002.6
20260905041557 45 48 0.0 1.0 0.00 0.15 0.11 77 1002.6
20260905040057 45 48 0.0 1.0 0.00 0.15 0.11 78 1002.5
20260905034555 45 42 0.0 0.0 0.00 0.15 0.11 78 1002.5
20260905033100 45 38 0.0 1.0 0.00 0.15 0.11 79 1002.4
20260905031553 45 43 0.0 0.0 0.00 0.15 0.11 81 1002.4
20260905030049 46 44 0.0 0.0 0.00 0.15 0.11 82 1002.2
20260905024547 47 46 0.0 0.0 0.00 0.15 0.11 83 1002.1
20260905023047 48 41 0.0 0.0 0.00 0.15 0.11 84 1002.0
20260905021544 49 50 0.0 1.0 0.00 0.15 0.11 84 1001.8
20260905020042 51 41 0.0 1.0 0.00 0.15 0.11 83 1001.9
20260905014540 52 41 0.0 0.0 0.00 0.15 0.11 82 1001.7
20260905013040 54 343 0.0 0.0 0.00 0.15 0.11 80 1001.5
20260905011539 57 343 0.0 0.0 0.00 0.15 0.11 75 1001.4
20260905010039 58 343 0.0 0.0 0.00 0.15 0.11 71 1001.4
20260905004539 58 358 0.0 1.0 0.00 0.15 0.11 70 1001.5
20260905003038 59 1 0.0 0.0 0.00 0.15 0.11 71 1001.5
20260905001538 59 53 0.0 1.0 0.00 0.15 0.11 68 1001.4
20260905000037 59 54 1.0 5.0 0.00 0.15 0.11 68 1001.2
20260904234536 60 354 0.0 2.0 0.00 0.15 0.11 67 1001.2
20260904233037 59 313 0.0 1.0 0.00 0.15 0.11 68 1001.2
20260904231537 59 237 0.0 2.0 0.00 0.15 0.11 67 1001.2
20260904230032 59 256 0.0 2.0 0.00 0.15 0.11 71 1001.3
20260904224539 59 165 0.0 4.0 0.00 0.15 0.11 70 1001.3
20260904223033 58 331 1.0 3.0 0.00 0.15 0.11 73 1001.4
20260904221530 58 269 0.0 1.0 0.00 0.15 0.11 73 1001.6
20260904220028 58 149 0.0 1.0 0.00 0.15 0.11 75 1001.6
20260904214539 57 255 0.0 1.0 0.00 0.15 0.11 77 1001.5
20260904213032 57 172 0.0 1.0 0.00 0.15 0.11 78 1001.5
20260904211525 56 53 0.0 1.0 0.00 0.15 0.11 82 1001.4
20260904210027 56 124 0.0 1.0 0.00 0.15 0.11 80 1001.3
20260904204522 53 118 0.0 0.0 0.00 0.15 0.11 66 1001.3
20260904203012 53 164 0.0 0.0 0.00 0.15 0.11 66 1001.2
20260904201510 52 166 0.0 0.0 0.00 0.15 0.11 67 1001.1
20260904200009 52 256 0.0 0.0 0.00 0.15 0.11 67 1001.1
20260904194508 53 259 0.0 1.0 0.00 0.15 0.11 67 1001.1
20260904193007 53 225 0.0 1.0 0.00 0.15 0.11 68 1001.1
20260904191503 52 153 0.0 0.0 0.01 0.15 0.11 69 1001.1
20260904190059 51 136 0.0 0.0 0.02 0.15 0.11 69 1001.1
20260904184601 51 143 0.0 0.0 0.02 0.15 0.11 69 1001.1
20260904183058 50 143 0.0 0.0 0.02 0.15 0.11 69 1001.1
20260904181557 50 150 0.0 0.0 0.01 0.14 0.10 69 1001.0
20260904180058 50 153 0.0 0.0 0.00 0.13 0.09 69 1000.8
20260904174553 51 149 0.0 0.0 0.00 0.13 0.09 69 1000.6
20260904173111 51 266 0.0 0.0 0.00 0.13 0.09 69 1000.5
20260904171604 50 267 0.0 0.0 0.00 0.13 0.09 69 1000.3
20260904170047 50 266 0.0 0.0 0.00 0.13 0.09 69 1000.1
20260904164553 50 146 0.0 0.0 0.01 0.13 0.09 70 1000.1
20260904163045 49 149 0.0 0.0 0.01 0.13 0.09 70 999.9
20260904161544 49 152 0.0 0.0 0.01 0.13 0.09 70 999.8
20260904160040 49 159 0.0 0.0 0.01 0.13 0.09 70 999.8
20260904154541 49 50 0.0 0.0 0.00 0.12 0.08 70 999.7
20260904153040 48 50 0.0 0.0 0.00 0.12 0.08 70 999.7
20260904151537 48 50 0.0 0.0 0.00 0.12 0.08 70 999.3
20260904150058 48 50 0.0 0.0 0.00 0.12 0.08 70 999.1
20260904144534 48 50 0.0 0.0 0.00 0.12 0.08 70 998.9
20260904143034 47 50 0.0 0.0 0.00 0.12 0.08 70 998.9
20260904141532 47 50 0.0 0.0 0.00 0.12 0.08 70 998.6
20260904140029 47 50 0.0 0.0 0.00 0.12 0.08 70 998.5
20260904134542 47 50 0.0 0.0 0.00 0.13 0.08 70 998.3
20260904133025 47 50 0.0 0.0 0.00 0.13 0.08 70 998.2
20260904131523 47 50 0.0 0.0 0.00 0.13 0.08 69 997.9
20260904130031 47 50 0.0 0.0 0.00 0.13 0.08 69 997.7
20260904124519 47 50 0.0 0.0 0.00 0.15 0.08 69 997.5
20260904123016 47 50 0.0 0.0 0.00 0.15 0.08 69 997.4
20260904121514 47 50 0.0 0.0 0.00 0.15 0.08 69 997.2
20260904120015 47 50 0.0 0.0 0.00 0.15 0.08 69 996.9